Change the Weather History Date:

Monday, November 28, 2011

  Actual Average Record
Temperature  
Mean Temperature 78 °F 80 °F  
Max Temperature 83 °F 85 °F 88 °F (1993)
Min Temperature 72 °F 74 °F 68 °F (1962)
Degree Days  
Heating Degree Days 0 0  
Month to date heating degree days 0 0  
Since 1 July heating degree days 0 0  
Cooling Degree Days 13 15  
Month to date cooling degree days 442 438  
Year to date cooling degree days 5186 5397  
Growing Degree Days 27 (Base 50)    
Moisture  
Dew Point 71 °F    
Average Humidity 82    
Maximum Humidity 94    
Minimum Humidity 69    
Precipitation  
Precipitation 0.11 in 0.19 in 2.21 in (1961)
Month to date precipitation 4.69 5.98  
Year to date precipitation 79.91 50.96  
Snow  
Snow 0.00 in - - ()
Month to date snowfall 0.0  
Since 1 July snowfall 0.0  
Since 1 September snowfall 0.0  
Snow Depth 0.00 in    
Sea Level Pressure  
Sea Level Pressure 29.81 in    
Wind  
Wind Speed 6 mph (NE)    
Max Wind Speed 23 mph    
Max Gust Speed 26 mph    
Visibility 10 miles    
Events Rain    
T = Trace of Precipitation, MM = Missing Value Source: NWS Daily Summary

Daily Weather History Graph

Daily Weather History Graph

Search for Another Location

Airport or City:

Trip Planner

Search our weather history database for the weather conditions in past years. The results will help you decide how hot, cold, wet, or windy it might be!

Date:

Astronomy

Nov. 28, 2011 Rise Set
Actual Time 6:37 AM AST 5:45 PM AST
Civil Twilight 6:14 AM AST 6:09 PM AST
Nautical Twilight 5:47 AM AST 6:36 PM AST
Astronomical Twilight 5:21 AM AST 7:02 PM AST
Moon 9:48 AM AST (11/28) 9:21 PM AST (11/28)
Length of Visible Light 11h 54m
Length of Day
11h 07m
Waxing Crescent, 15% of the Moon is Illuminated
Nov 28
Waxing Crescent
Dec 2
First Quarter
Dec 10
Full
Dec 17
Last Quarter
Dec 24
New

Hourly Weather History & Observations

Time (AST) Temp. Heat Index Dew Point Humidity Pressure Visibility Wind Dir Wind Speed Gust Speed Precip Events Conditions
12:56 AM 75.0 °F - 73.0 °F 94% 29.81 in 9.0 mi WNW 3.5 mph - 0.00 in Rain Light Rain
1:56 AM 75.9 °F - 73.0 °F 91% 29.79 in 10.0 mi Calm Calm - 0.06 in   Scattered Clouds
2:56 AM 73.9 °F - 71.1 °F 91% 29.79 in 8.0 mi East 20.7 mph 26.5 mph 0.00 in Rain Light Rain
3:56 AM 73.0 °F - 69.1 °F 87% 29.79 in 10.0 mi East 13.8 mph - 0.01 in   Scattered Clouds
4:56 AM 72.0 °F - 68.0 °F 87% 29.80 in 10.0 mi East 10.4 mph - N/A   Scattered Clouds
5:56 AM 73.0 °F - 68.0 °F 84% 29.80 in 10.0 mi Calm Calm - N/A   Scattered Clouds
6:56 AM 73.0 °F - 69.1 °F 87% 29.81 in 10.0 mi South 3.5 mph - N/A   Scattered Clouds
7:56 AM 73.9 °F - 69.1 °F 85% 29.82 in 10.0 mi Calm Calm - N/A   Scattered Clouds
8:56 AM 77.0 °F - 70.0 °F 79% 29.84 in 10.0 mi Calm Calm - N/A   Scattered Clouds
9:56 AM 78.1 °F - 70.0 °F 76% 29.86 in 10.0 mi North 4.6 mph - N/A   Scattered Clouds
10:56 AM 81.0 °F 84.9 °F 71.1 °F 72% 29.85 in 10.0 mi NNE 6.9 mph - N/A   Scattered Clouds
11:56 AM 82.0 °F 86.7 °F 72.0 °F 71% 29.83 in 10.0 mi North 9.2 mph - N/A   Scattered Clouds
12:56 PM 82.0 °F 86.7 °F 72.0 °F 71% 29.80 in 10.0 mi North 8.1 mph - N/A   Scattered Clouds
1:56 PM 82.0 °F 87.4 °F 73.0 °F 74% 29.78 in 10.0 mi North 6.9 mph - N/A   Scattered Clouds
2:56 PM 82.9 °F 88.8 °F 73.0 °F 72% 29.76 in 10.0 mi NNE 11.5 mph - N/A   Scattered Clouds
3:56 PM 80.1 °F 84.2 °F 73.0 °F 79% 29.77 in 10.0 mi NNE 15.0 mph - N/A   Mostly Cloudy
4:56 PM 79.0 °F - 73.0 °F 82% 29.78 in 10.0 mi ENE 10.4 mph - N/A   Mostly Cloudy
5:56 PM 78.1 °F - 72.0 °F 81% 29.78 in 10.0 mi East 8.1 mph - N/A   Scattered Clouds
6:56 PM 77.0 °F - 71.1 °F 82% 29.79 in 10.0 mi Calm Calm - N/A   Scattered Clouds
7:56 PM 77.0 °F - 71.1 °F 82% 29.81 in 10.0 mi Calm Calm - N/A   Scattered Clouds
8:56 PM 77.0 °F - 73.9 °F 90% 29.82 in 10.0 mi Calm Calm - 0.04 in   Mostly Cloudy
9:56 PM 79.0 °F - 72.0 °F 79% 29.83 in 10.0 mi NE 8.1 mph - N/A   Scattered Clouds
10:56 PM 79.0 °F - 72.0 °F 79% 29.82 in 10.0 mi ENE 3.5 mph - N/A   Mostly Cloudy
11:56 PM 79.0 °F - 72.0 °F 79% 29.82 in 10.0 mi NNE 8.1 mph - N/A   Mostly Cloudy